Year,Month,Day,Hour,Minute,Value (Times are PST for temperature in C)
2015,06,27,00,00,16.70
2015,06,27,00,01,16.70
2015,06,27,00,02,16.70
2015,06,27,00,03,16.60
2015,06,27,00,04,16.60
2015,06,27,00,05,16.60
2015,06,27,00,06,16.60
2015,06,27,00,07,16.60
2015,06,27,00,08,16.60
2015,06,27,00,09,16.60
2015,06,27,00,10,16.60
2015,06,27,00,11,16.60
2015,06,27,00,12,16.60
2015,06,27,00,13,16.60
2015,06,27,00,14,16.40
2015,06,27,00,15,16.40
2015,06,27,00,16,16.40
2015,06,27,00,17,16.40
2015,06,27,00,18,16.40
2015,06,27,00,19,16.40
2015,06,27,00,20,16.40
2015,06,27,00,21,16.40
2015,06,27,00,22,16.40
2015,06,27,00,23,16.40
2015,06,27,00,24,16.40
2015,06,27,00,25,16.40
2015,06,27,00,26,16.40
2015,06,27,00,27,16.40
2015,06,27,00,28,16.40
2015,06,27,00,29,16.50
2015,06,27,00,30,16.60
2015,06,27,00,31,16.60
2015,06,27,00,32,16.60
2015,06,27,00,33,16.60
2015,06,27,00,34,16.60
2015,06,27,00,35,16.60
2015,06,27,00,36,16.70
2015,06,27,00,37,16.70
2015,06,27,00,38,16.70
2015,06,27,00,39,16.70
2015,06,27,00,40,16.70
2015,06,27,00,41,16.70
2015,06,27,00,42,16.70
2015,06,27,00,43,16.70
2015,06,27,00,44,16.70
2015,06,27,00,45,16.70
2015,06,27,00,46,16.70
2015,06,27,00,47,16.70
2015,06,27,00,48,16.70
2015,06,27,00,49,16.70
2015,06,27,00,50,16.70
2015,06,27,00,51,16.70
2015,06,27,00,52,16.70
2015,06,27,00,53,16.70
2015,06,27,00,54,16.70
2015,06,27,00,55,16.60
2015,06,27,00,56,16.60
2015,06,27,00,57,16.60
2015,06,27,00,58,16.60
2015,06,27,00,59,16.40
2015,06,27,01,00,16.40
2015,06,27,01,01,16.40
2015,06,27,01,02,16.40
2015,06,27,01,03,16.40
2015,06,27,01,04,16.40
2015,06,27,01,05,16.40
2015,06,27,01,06,16.40
2015,06,27,01,07,16.40
2015,06,27,01,08,16.40
2015,06,27,01,09,16.40
2015,06,27,01,10,16.30
2015,06,27,01,11,16.30
2015,06,27,01,12,16.30
2015,06,27,01,13,16.20
2015,06,27,01,14,16.20
2015,06,27,01,15,16.20
2015,06,27,01,16,16.10
2015,06,27,01,17,16.10
2015,06,27,01,18,16.10
2015,06,27,01,19,16.10
2015,06,27,01,20,16.10
2015,06,27,01,21,16.10
2015,06,27,01,22,16.10
2015,06,27,01,23,16.10
2015,06,27,01,24,16.10
2015,06,27,01,25,15.90
2015,06,27,01,26,15.90
2015,06,27,01,27,15.90
2015,06,27,01,28,15.90
2015,06,27,01,29,15.90
2015,06,27,01,30,15.90
2015,06,27,01,31,15.90
2015,06,27,01,32,15.90
2015,06,27,01,33,15.90
2015,06,27,01,34,15.90
2015,06,27,01,35,15.90
2015,06,27,01,36,15.90
2015,06,27,01,37,15.90
2015,06,27,01,38,15.90
2015,06,27,01,39,15.90
2015,06,27,01,40,15.90
2015,06,27,01,41,15.90
2015,06,27,01,42,15.90
2015,06,27,01,43,15.80
2015,06,27,01,44,15.80
2015,06,27,01,45,15.90
2015,06,27,01,46,15.90
2015,06,27,01,47,15.90
2015,06,27,01,48,15.90
2015,06,27,01,49,15.90
2015,06,27,01,50,15.90
2015,06,27,01,51,15.90
2015,06,27,01,52,15.90
2015,06,27,01,53,15.90
2015,06,27,01,54,15.90
2015,06,27,01,55,15.90
2015,06,27,01,56,15.90
2015,06,27,01,57,15.90
2015,06,27,01,58,15.90
2015,06,27,01,59,15.90
2015,06,27,02,00,15.80
2015,06,27,02,01,15.80
2015,06,27,02,02,15.80
2015,06,27,02,03,15.80
2015,06,27,02,04,15.80
2015,06,27,02,05,15.80
2015,06,27,02,06,15.80
2015,06,27,02,07,15.80
2015,06,27,02,08,15.80
2015,06,27,02,09,15.80
2015,06,27,02,10,15.80
2015,06,27,02,11,15.80
2015,06,27,02,12,15.80
2015,06,27,02,13,15.80
2015,06,27,02,14,15.80
2015,06,27,02,15,15.80
2015,06,27,02,16,15.80
2015,06,27,02,17,15.80
2015,06,27,02,18,15.80
2015,06,27,02,19,15.80
2015,06,27,02,20,15.80
2015,06,27,02,21,15.80
2015,06,27,02,22,15.80
2015,06,27,02,23,15.80
2015,06,27,02,24,15.80
2015,06,27,02,25,15.80
2015,06,27,02,26,15.80
2015,06,27,02,27,15.80
2015,06,27,02,28,15.80
2015,06,27,02,29,15.80
2015,06,27,02,30,15.80
2015,06,27,02,31,15.80
2015,06,27,02,32,15.80
2015,06,27,02,33,15.80
2015,06,27,02,34,15.80
2015,06,27,02,35,15.80
2015,06,27,02,36,15.80
2015,06,27,02,37,15.70
2015,06,27,02,38,15.70
2015,06,27,02,39,15.70
2015,06,27,02,40,15.70
2015,06,27,02,41,15.70
2015,06,27,02,42,15.60
2015,06,27,02,43,15.60
2015,06,27,02,44,15.60
2015,06,27,02,45,15.60
2015,06,27,02,46,15.60
2015,06,27,02,47,15.60
2015,06,27,02,48,15.60
2015,06,27,02,49,15.60
2015,06,27,02,50,15.60
2015,06,27,02,51,15.50
2015,06,27,02,52,15.50
2015,06,27,02,53,15.50
2015,06,27,02,54,15.50
2015,06,27,02,55,15.50
2015,06,27,02,56,15.50
2015,06,27,02,57,15.50
2015,06,27,02,58,15.50
2015,06,27,02,59,15.50
2015,06,27,03,00,15.50
2015,06,27,03,01,15.50
2015,06,27,03,02,15.50
2015,06,27,03,03,15.40
2015,06,27,03,04,15.40
2015,06,27,03,05,15.40
2015,06,27,03,06,15.40
2015,06,27,03,07,15.40
2015,06,27,03,08,15.40
2015,06,27,03,09,15.40
2015,06,27,03,10,15.40
2015,06,27,03,11,15.40
2015,06,27,03,12,15.40
2015,06,27,03,13,15.40
2015,06,27,03,14,15.40
2015,06,27,03,15,15.40
2015,06,27,03,16,15.40
2015,06,27,03,17,15.30
2015,06,27,03,18,15.30
2015,06,27,03,19,15.30
2015,06,27,03,20,15.30
2015,06,27,03,21,15.30
2015,06,27,03,22,15.20
2015,06,27,03,23,15.20
2015,06,27,03,24,15.20
2015,06,27,03,25,15.10
2015,06,27,03,26,15.10
2015,06,27,03,27,15.10
2015,06,27,03,28,15.10
2015,06,27,03,29,15.00
2015,06,27,03,30,15.00
2015,06,27,03,31,15.00
2015,06,27,03,32,15.00
2015,06,27,03,33,15.00
2015,06,27,03,34,15.00
2015,06,27,03,35,14.90
2015,06,27,03,36,14.90
2015,06,27,03,37,14.90
2015,06,27,03,38,14.90
2015,06,27,03,39,14.90
2015,06,27,03,40,14.90
2015,06,27,03,41,14.90
2015,06,27,03,42,14.90
2015,06,27,03,43,14.90
2015,06,27,03,44,14.80
2015,06,27,03,45,14.80
2015,06,27,03,46,14.80
2015,06,27,03,47,14.80
2015,06,27,03,48,14.80
2015,06,27,03,49,14.80
2015,06,27,03,50,14.80
2015,06,27,03,51,14.80
2015,06,27,03,52,14.80
2015,06,27,03,53,14.80
2015,06,27,03,54,14.80
2015,06,27,03,55,14.80
2015,06,27,03,56,14.80
2015,06,27,03,57,14.80
2015,06,27,03,58,14.80
2015,06,27,03,59,14.80
2015,06,27,04,00,14.80
2015,06,27,04,01,14.80
2015,06,27,04,02,14.80
2015,06,27,04,03,14.80
2015,06,27,04,04,14.80
2015,06,27,04,05,14.80
2015,06,27,04,06,14.80
2015,06,27,04,07,14.80
2015,06,27,04,08,14.80
2015,06,27,04,09,14.80
2015,06,27,04,10,14.80
2015,06,27,04,11,14.80
2015,06,27,04,12,14.80
2015,06,27,04,13,14.80
2015,06,27,04,14,14.80
2015,06,27,04,15,14.80
2015,06,27,04,16,14.80
2015,06,27,04,17,14.80
2015,06,27,04,18,14.80
2015,06,27,04,19,14.80
2015,06,27,04,20,14.80
2015,06,27,04,21,14.80
2015,06,27,04,22,14.80
2015,06,27,04,23,14.80
2015,06,27,04,24,14.80
2015,06,27,04,25,14.80
2015,06,27,04,26,14.80
2015,06,27,04,27,14.80
2015,06,27,04,28,14.80
2015,06,27,04,29,14.90
2015,06,27,04,30,14.90
2015,06,27,04,31,14.90
2015,06,27,04,32,15.00
2015,06,27,04,33,15.00
2015,06,27,04,34,15.00
2015,06,27,04,35,15.00
2015,06,27,04,36,15.00
2015,06,27,04,37,15.00
2015,06,27,04,38,14.90
2015,06,27,04,39,14.90
2015,06,27,04,40,14.90
2015,06,27,04,41,14.90
2015,06,27,04,42,14.90
2015,06,27,04,43,14.90
2015,06,27,04,44,15.00
2015,06,27,04,45,15.00
2015,06,27,04,46,15.00
2015,06,27,04,47,15.00
2015,06,27,04,48,15.00
2015,06,27,04,49,15.00
2015,06,27,04,50,15.00
2015,06,27,04,51,15.10
2015,06,27,04,52,15.10
2015,06,27,04,53,15.10
2015,06,27,04,54,15.10
2015,06,27,04,55,15.00
2015,06,27,04,56,15.00
2015,06,27,04,57,15.00
2015,06,27,04,58,15.10
2015,06,27,04,59,15.10
2015,06,27,05,00,15.10
2015,06,27,05,01,15.10
2015,06,27,05,02,15.10
2015,06,27,05,03,15.10
2015,06,27,05,04,15.00
2015,06,27,05,05,15.00
2015,06,27,05,06,14.90
2015,06,27,05,07,14.90
2015,06,27,05,08,14.80
2015,06,27,05,09,14.80
2015,06,27,05,10,14.70
2015,06,27,05,11,14.70
2015,06,27,05,12,14.60
2015,06,27,05,13,14.60
2015,06,27,05,14,14.60
2015,06,27,05,15,14.50
2015,06,27,05,16,14.50
2015,06,27,05,17,14.40
2015,06,27,05,18,14.40
2015,06,27,05,19,14.40
2015,06,27,05,20,14.30
2015,06,27,05,21,14.30
2015,06,27,05,22,14.30
2015,06,27,05,23,14.20
2015,06,27,05,24,14.20
2015,06,27,05,25,14.20
2015,06,27,05,26,14.20
2015,06,27,05,27,14.20
2015,06,27,05,28,14.20
2015,06,27,05,29,14.20
2015,06,27,05,30,14.10
2015,06,27,05,31,14.10
2015,06,27,05,32,14.10
2015,06,27,05,33,14.10
2015,06,27,05,34,14.10
2015,06,27,05,35,14.10
2015,06,27,05,36,14.10
2015,06,27,05,37,14.10
2015,06,27,05,38,14.00
2015,06,27,05,39,14.00
2015,06,27,05,40,14.00
2015,06,27,05,41,13.90
2015,06,27,05,42,13.90
2015,06,27,05,43,13.80
2015,06,27,05,44,13.80
2015,06,27,05,45,13.70
2015,06,27,05,46,13.70
2015,06,27,05,47,13.60
2015,06,27,05,48,13.60
2015,06,27,05,49,13.50
2015,06,27,05,50,13.40
2015,06,27,05,51,13.40
2015,06,27,05,52,13.30
2015,06,27,05,53,13.30
2015,06,27,05,54,13.30
2015,06,27,05,55,13.30
2015,06,27,05,56,13.30
2015,06,27,05,57,13.30
2015,06,27,05,58,13.30
2015,06,27,05,59,13.30
2015,06,27,06,00,13.30
2015,06,27,06,01,13.30
2015,06,27,06,02,13.30
2015,06,27,06,03,13.30
2015,06,27,06,04,13.30
2015,06,27,06,05,13.40
2015,06,27,06,06,13.40
2015,06,27,06,07,13.40
2015,06,27,06,08,13.40
2015,06,27,06,09,13.40
2015,06,27,06,10,13.50
2015,06,27,06,11,13.50
2015,06,27,06,12,13.50
2015,06,27,06,13,13.50
2015,06,27,06,14,13.60
2015,06,27,06,15,13.60
2015,06,27,06,16,13.70
2015,06,27,06,17,13.70
2015,06,27,06,18,13.80
2015,06,27,06,19,13.80
2015,06,27,06,20,13.90
2015,06,27,06,21,13.90
2015,06,27,06,22,14.00
2015,06,27,06,23,14.10
2015,06,27,06,24,14.10
2015,06,27,06,25,14.20
2015,06,27,06,26,14.20
2015,06,27,06,27,14.20
2015,06,27,06,28,14.30
2015,06,27,06,29,14.30
2015,06,27,06,30,14.40
2015,06,27,06,31,14.50
2015,06,27,06,32,14.50
2015,06,27,06,33,14.60
2015,06,27,06,34,14.60
2015,06,27,06,35,14.70
2015,06,27,06,36,14.70
2015,06,27,06,37,14.70
2015,06,27,06,38,14.80
2015,06,27,06,39,14.80
2015,06,27,06,40,14.80
2015,06,27,06,41,14.80
2015,06,27,06,42,14.80
2015,06,27,06,43,14.80
2015,06,27,06,44,14.80
2015,06,27,06,45,14.90
2015,06,27,06,46,14.90
2015,06,27,06,47,15.00
2015,06,27,06,48,15.00
2015,06,27,06,49,15.00
2015,06,27,06,50,15.00
2015,06,27,06,51,15.00
2015,06,27,06,52,15.00
2015,06,27,06,53,15.00
2015,06,27,06,54,15.10
2015,06,27,06,55,15.10
2015,06,27,06,56,15.10
2015,06,27,06,57,15.20
2015,06,27,06,58,15.20
2015,06,27,06,59,15.20
2015,06,27,07,00,15.20
2015,06,27,07,01,15.20
2015,06,27,07,02,15.20
2015,06,27,07,03,15.30
2015,06,27,07,04,15.30
2015,06,27,07,05,15.30
2015,06,27,07,06,15.40
2015,06,27,07,07,15.40
2015,06,27,07,08,15.50
2015,06,27,07,09,15.50
2015,06,27,07,10,15.60
2015,06,27,07,11,15.70
2015,06,27,07,12,15.70
2015,06,27,07,13,15.80
2015,06,27,07,14,15.80
2015,06,27,07,15,15.90
2015,06,27,07,16,16.00
2015,06,27,07,17,16.10
2015,06,27,07,18,16.30
2015,06,27,07,19,16.40
2015,06,27,07,20,16.50
2015,06,27,07,21,16.60
2015,06,27,07,22,16.70
2015,06,27,07,23,16.80
2015,06,27,07,24,16.80
2015,06,27,07,25,16.90
2015,06,27,07,26,17.00
2015,06,27,07,27,17.00
2015,06,27,07,28,17.10
2015,06,27,07,29,17.20
2015,06,27,07,30,17.30
2015,06,27,07,31,17.40
2015,06,27,07,32,17.50
2015,06,27,07,33,17.60
2015,06,27,07,34,17.70
2015,06,27,07,35,17.70
2015,06,27,07,36,17.80
2015,06,27,07,37,17.90
2015,06,27,07,38,18.10
2015,06,27,07,39,18.20
2015,06,27,07,40,18.20
2015,06,27,07,41,18.20
2015,06,27,07,42,18.30
2015,06,27,07,43,18.30
2015,06,27,07,44,18.30
2015,06,27,07,45,18.10
2015,06,27,07,46,17.90
2015,06,27,07,47,17.80
2015,06,27,07,48,17.70
2015,06,27,07,49,17.50
2015,06,27,07,50,17.50
2015,06,27,07,51,17.40
2015,06,27,07,52,17.30
2015,06,27,07,53,17.30
2015,06,27,07,54,17.20
2015,06,27,07,55,17.20
2015,06,27,07,56,17.10
2015,06,27,07,57,17.00
2015,06,27,07,58,16.90
2015,06,27,07,59,16.80
2015,06,27,08,00,16.70
2015,06,27,08,01,16.50
2015,06,27,08,02,16.30
2015,06,27,08,03,16.30
2015,06,27,08,04,16.20
2015,06,27,08,05,16.10
2015,06,27,08,06,16.10
2015,06,27,08,07,16.00
2015,06,27,08,08,15.90
2015,06,27,08,09,15.80
2015,06,27,08,10,15.80
2015,06,27,08,11,15.80
2015,06,27,08,12,15.80
2015,06,27,08,13,15.80
2015,06,27,08,14,15.80
2015,06,27,08,15,15.70
2015,06,27,08,16,15.70
2015,06,27,08,17,15.70
2015,06,27,08,18,15.60
2015,06,27,08,19,15.60
2015,06,27,08,20,15.60
2015,06,27,08,21,15.60
2015,06,27,08,22,15.60
2015,06,27,08,23,15.70
2015,06,27,08,24,15.70
2015,06,27,08,25,15.80
2015,06,27,08,26,15.70
2015,06,27,08,27,15.70
2015,06,27,08,28,15.70
2015,06,27,08,29,15.80
2015,06,27,08,30,15.80
2015,06,27,08,31,15.80
2015,06,27,08,32,15.80
2015,06,27,08,33,15.80
2015,06,27,08,34,15.90
2015,06,27,08,35,15.90
2015,06,27,08,36,16.00
2015,06,27,08,37,16.10
2015,06,27,08,38,16.10
2015,06,27,08,39,16.10
2015,06,27,08,40,16.20
2015,06,27,08,41,16.30
2015,06,27,08,42,16.30
2015,06,27,08,43,16.40
2015,06,27,08,44,16.40
2015,06,27,08,45,16.50
2015,06,27,08,46,16.70
2015,06,27,08,47,16.80
2015,06,27,08,48,16.90
2015,06,27,08,49,17.00
2015,06,27,08,50,17.20
2015,06,27,08,51,17.40
2015,06,27,08,52,17.50
2015,06,27,08,53,17.60
2015,06,27,08,54,17.60
2015,06,27,08,55,17.50
2015,06,27,08,56,17.40
2015,06,27,08,57,17.30
2015,06,27,08,58,17.20
2015,06,27,08,59,17.00
2015,06,27,09,00,17.00
2015,06,27,09,01,16.90
2015,06,27,09,02,16.90
2015,06,27,09,03,16.80
2015,06,27,09,04,16.90
2015,06,27,09,05,16.90
2015,06,27,09,06,17.00
2015,06,27,09,07,17.00
2015,06,27,09,08,17.00
2015,06,27,09,09,16.90
2015,06,27,09,10,16.90
2015,06,27,09,11,17.00
2015,06,27,09,12,17.00
2015,06,27,09,13,17.00
2015,06,27,09,14,17.10
2015,06,27,09,15,17.10
2015,06,27,09,16,17.30
2015,06,27,09,17,17.40
2015,06,27,09,18,17.50
2015,06,27,09,19,17.70
2015,06,27,09,20,17.80
2015,06,27,09,21,17.80
2015,06,27,09,22,17.80
2015,06,27,09,23,17.80
2015,06,27,09,24,17.70
2015,06,27,09,25,17.60
2015,06,27,09,26,17.50
2015,06,27,09,27,17.30
2015,06,27,09,28,17.10
2015,06,27,09,29,16.90
2015,06,27,09,30,16.70
2015,06,27,09,31,16.30
2015,06,27,09,32,16.10
2015,06,27,09,33,15.90
2015,06,27,09,34,15.80
2015,06,27,09,35,15.70
2015,06,27,09,36,15.50
2015,06,27,09,37,15.30
2015,06,27,09,38,15.20
2015,06,27,09,39,15.10
2015,06,27,09,40,15.10
2015,06,27,09,41,15.00
2015,06,27,09,42,14.90
2015,06,27,09,43,14.80
2015,06,27,09,44,14.70
2015,06,27,09,45,14.60
2015,06,27,09,46,14.50
2015,06,27,09,47,14.30
2015,06,27,09,48,14.20
2015,06,27,09,49,14.10
2015,06,27,09,50,14.00
2015,06,27,09,51,14.00
2015,06,27,09,52,13.90
2015,06,27,09,53,13.90
2015,06,27,09,54,13.90
2015,06,27,09,55,13.90
2015,06,27,09,56,13.80
2015,06,27,09,57,13.70
2015,06,27,09,58,13.70
2015,06,27,09,59,13.70
2015,06,27,10,00,13.70
2015,06,27,10,01,13.70
2015,06,27,10,02,13.70
2015,06,27,10,03,13.70
2015,06,27,10,04,13.80
2015,06,27,10,05,13.90
2015,06,27,10,06,14.00
2015,06,27,10,07,14.10
2015,06,27,10,08,14.20
2015,06,27,10,09,14.20
2015,06,27,10,10,14.20
2015,06,27,10,11,14.10
2015,06,27,10,12,14.10
2015,06,27,10,13,14.20
2015,06,27,10,14,14.20
2015,06,27,10,15,14.30
2015,06,27,10,16,14.40
2015,06,27,10,17,14.40
2015,06,27,10,18,14.50
2015,06,27,10,19,14.50
2015,06,27,10,20,14.60
2015,06,27,10,21,14.70
2015,06,27,10,22,14.90
2015,06,27,10,23,15.00
2015,06,27,10,24,15.20
2015,06,27,10,25,15.30
2015,06,27,10,26,15.40
2015,06,27,10,27,15.50
2015,06,27,10,28,15.60
2015,06,27,10,29,15.70
2015,06,27,10,30,15.80
2015,06,27,10,31,15.90
2015,06,27,10,32,16.00
2015,06,27,10,33,16.20
2015,06,27,10,34,16.30
2015,06,27,10,35,16.40
2015,06,27,10,36,16.50
2015,06,27,10,37,16.70
2015,06,27,10,38,16.80
2015,06,27,10,39,16.90
2015,06,27,10,40,16.90
2015,06,27,10,41,17.00
2015,06,27,10,42,17.20
2015,06,27,10,43,17.30
2015,06,27,10,44,17.50
2015,06,27,10,45,17.60
2015,06,27,10,46,17.80
2015,06,27,10,47,18.00
2015,06,27,10,48,18.20
2015,06,27,10,49,18.40
2015,06,27,10,50,18.60
2015,06,27,10,51,18.80
2015,06,27,10,52,18.90
2015,06,27,10,53,19.10
2015,06,27,10,54,19.30
2015,06,27,10,55,19.50
2015,06,27,10,56,19.70
2015,06,27,10,57,20.00
2015,06,27,10,58,20.20
2015,06,27,10,59,20.50
2015,06,27,11,00,20.70
2015,06,27,11,01,20.90
2015,06,27,11,02,21.10
2015,06,27,11,03,21.30
2015,06,27,11,04,21.50
2015,06,27,11,05,21.60
2015,06,27,11,06,21.80
2015,06,27,11,07,21.90
2015,06,27,11,08,22.00
2015,06,27,11,09,22.10
2015,06,27,11,10,22.30
2015,06,27,11,11,22.40
2015,06,27,11,12,22.60
2015,06,27,11,13,22.80
2015,06,27,11,14,22.90
2015,06,27,11,15,23.10
2015,06,27,11,16,23.30
2015,06,27,11,17,23.40
2015,06,27,11,18,23.60
2015,06,27,11,19,23.70
2015,06,27,11,20,23.90
2015,06,27,11,21,24.10
2015,06,27,11,22,24.20
2015,06,27,11,23,24.30
2015,06,27,11,24,24.00
2015,06,27,11,25,23.00
2015,06,27,11,26,22.10
2015,06,27,11,27,21.40
2015,06,27,11,28,20.90
2015,06,27,11,29,20.60
2015,06,27,11,30,20.40
2015,06,27,11,31,20.20
2015,06,27,11,32,20.00
2015,06,27,11,33,19.90
2015,06,27,11,34,19.70
2015,06,27,11,35,19.60
2015,06,27,11,36,19.40
2015,06,27,11,37,19.30
2015,06,27,11,38,19.10
2015,06,27,11,39,19.10
2015,06,27,11,40,19.10
2015,06,27,11,41,19.10
2015,06,27,11,42,19.10
2015,06,27,11,43,19.20
2015,06,27,11,44,19.40
2015,06,27,11,45,19.50
2015,06,27,11,46,19.60
2015,06,27,11,47,19.70
2015,06,27,11,48,19.70
2015,06,27,11,49,19.80
2015,06,27,11,50,19.70
2015,06,27,11,51,19.70
2015,06,27,11,52,19.70
2015,06,27,11,53,19.60
2015,06,27,11,54,19.50
2015,06,27,11,55,19.40
2015,06,27,11,56,19.20
2015,06,27,11,57,19.10
2015,06,27,11,58,19.00
2015,06,27,11,59,19.00
2015,06,27,12,00,19.10
2015,06,27,12,01,19.10
2015,06,27,12,02,19.10
2015,06,27,12,03,19.10
2015,06,27,12,04,19.10
2015,06,27,12,05,19.00
2015,06,27,12,06,18.90
2015,06,27,12,07,19.00
2015,06,27,12,08,19.10
2015,06,27,12,09,19.10
2015,06,27,12,10,19.10
2015,06,27,12,11,19.10
2015,06,27,12,12,19.10
2015,06,27,12,13,19.20
2015,06,27,12,14,19.20
2015,06,27,12,15,19.20
2015,06,27,12,16,19.30
2015,06,27,12,17,19.30
2015,06,27,12,18,19.40
2015,06,27,12,19,19.40
2015,06,27,12,20,19.40
2015,06,27,12,21,19.50
2015,06,27,12,22,19.60
2015,06,27,12,23,19.70
2015,06,27,12,24,19.60
2015,06,27,12,25,19.60
2015,06,27,12,26,19.50
2015,06,27,12,27,19.40
2015,06,27,12,28,19.30
2015,06,27,12,29,19.30
2015,06,27,12,30,19.40
2015,06,27,12,31,19.40
2015,06,27,12,32,19.60
2015,06,27,12,33,19.70
2015,06,27,12,34,19.70
2015,06,27,12,35,19.70
2015,06,27,12,36,19.70
2015,06,27,12,37,19.60
2015,06,27,12,38,19.50
2015,06,27,12,39,19.40
2015,06,27,12,40,19.30
2015,06,27,12,41,19.20
2015,06,27,12,42,19.10
2015,06,27,12,43,19.10
2015,06,27,12,44,19.00
2015,06,27,12,45,18.90
2015,06,27,12,46,18.90
2015,06,27,12,47,18.80
2015,06,27,12,48,18.80
2015,06,27,12,49,18.80
2015,06,27,12,50,18.70
2015,06,27,12,51,18.60
2015,06,27,12,52,18.60
2015,06,27,12,53,18.70
2015,06,27,12,54,18.70
2015,06,27,12,55,18.70
2015,06,27,12,56,18.70
2015,06,27,12,57,18.70
2015,06,27,12,58,18.70
2015,06,27,12,59,18.60
2015,06,27,13,00,18.50
2015,06,27,13,01,18.30
2015,06,27,13,02,18.20
2015,06,27,13,03,18.10
2015,06,27,13,04,18.10
2015,06,27,13,05,18.10
2015,06,27,13,06,18.10
2015,06,27,13,07,18.20
2015,06,27,13,08,18.20
2015,06,27,13,09,18.30
2015,06,27,13,10,18.40
2015,06,27,13,11,18.50
2015,06,27,13,12,18.60
2015,06,27,13,13,18.70
2015,06,27,13,14,18.90
2015,06,27,13,15,19.00
2015,06,27,13,16,19.10
2015,06,27,13,17,19.20
2015,06,27,13,18,19.20
2015,06,27,13,19,19.20
2015,06,27,13,20,19.30
2015,06,27,13,21,19.30
2015,06,27,13,22,19.30
2015,06,27,13,23,19.30
2015,06,27,13,24,19.30
2015,06,27,13,25,19.40
2015,06,27,13,26,19.50
2015,06,27,13,27,19.60
2015,06,27,13,28,19.60
2015,06,27,13,29,19.70
2015,06,27,13,30,19.60
2015,06,27,13,31,19.60
2015,06,27,13,32,19.60
2015,06,27,13,33,19.60
2015,06,27,13,34,19.60
2015,06,27,13,35,19.60
2015,06,27,13,36,19.70
2015,06,27,13,37,19.70
2015,06,27,13,38,19.70
2015,06,27,13,39,19.70
2015,06,27,13,40,19.70
2015,06,27,13,41,19.70
2015,06,27,13,42,19.70
2015,06,27,13,43,19.60
2015,06,27,13,44,19.70
2015,06,27,13,45,19.80
2015,06,27,13,46,19.90
2015,06,27,13,47,19.90
2015,06,27,13,48,20.10
2015,06,27,13,49,20.10
2015,06,27,13,50,20.00
2015,06,27,13,51,19.90
2015,06,27,13,52,19.90
2015,06,27,13,53,19.90
2015,06,27,13,54,19.90
2015,06,27,13,55,19.80
2015,06,27,13,56,19.80
2015,06,27,13,57,19.80
2015,06,27,13,58,19.90
2015,06,27,13,59,19.90
2015,06,27,14,00,19.90
2015,06,27,14,01,19.90
2015,06,27,14,02,19.90
2015,06,27,14,03,19.80
2015,06,27,14,04,19.80
2015,06,27,14,05,19.70
2015,06,27,14,06,19.70
2015,06,27,14,07,19.60
2015,06,27,14,08,19.70
2015,06,27,14,09,19.70
2015,06,27,14,10,19.70
2015,06,27,14,11,19.70
2015,06,27,14,12,19.70
2015,06,27,14,13,19.70
2015,06,27,14,14,19.90
2015,06,27,14,15,19.90
2015,06,27,14,16,19.90
2015,06,27,14,17,19.90
2015,06,27,14,18,20.00
2015,06,27,14,19,20.20
2015,06,27,14,20,20.20
2015,06,27,14,21,20.20
2015,06,27,14,22,20.10
2015,06,27,14,23,20.20
2015,06,27,14,24,20.20
2015,06,27,14,25,20.20
2015,06,27,14,26,20.20
2015,06,27,14,27,20.10
2015,06,27,14,28,20.10
2015,06,27,14,29,20.10
2015,06,27,14,30,20.10
2015,06,27,14,31,20.10
2015,06,27,14,32,20.20
2015,06,27,14,33,20.20
2015,06,27,14,34,20.20
2015,06,27,14,35,20.20
2015,06,27,14,36,20.20
2015,06,27,14,37,20.20
2015,06,27,14,38,20.20
2015,06,27,14,39,20.20
2015,06,27,14,40,20.20
2015,06,27,14,41,20.30
2015,06,27,14,42,20.40
2015,06,27,14,43,20.40
2015,06,27,14,44,20.40
2015,06,27,14,45,20.40
2015,06,27,14,46,20.30
2015,06,27,14,47,20.40
2015,06,27,14,48,20.50
2015,06,27,14,49,20.60
2015,06,27,14,50,20.80
2015,06,27,14,51,20.90
2015,06,27,14,52,20.90
2015,06,27,14,53,20.90
2015,06,27,14,54,20.90
2015,06,27,14,55,21.00
2015,06,27,14,56,21.00
2015,06,27,14,57,21.10
2015,06,27,14,58,21.30
2015,06,27,14,59,21.30
2015,06,27,15,00,21.30
2015,06,27,15,01,21.50
2015,06,27,15,02,21.60
2015,06,27,15,03,21.80
2015,06,27,15,04,21.90
2015,06,27,15,05,22.10
2015,06,27,15,06,22.20
2015,06,27,15,07,22.30
2015,06,27,15,08,22.40
2015,06,27,15,09,22.40
2015,06,27,15,10,22.30
2015,06,27,15,11,22.20
2015,06,27,15,12,22.20
2015,06,27,15,13,22.20
2015,06,27,15,14,22.30
2015,06,27,15,15,22.40
2015,06,27,15,16,22.50
2015,06,27,15,17,22.70
2015,06,27,15,18,22.90
2015,06,27,15,19,23.10
2015,06,27,15,20,23.40
2015,06,27,15,21,23.60
2015,06,27,15,22,23.80
2015,06,27,15,23,23.90
2015,06,27,15,24,24.10
2015,06,27,15,25,24.20
2015,06,27,15,26,24.30
2015,06,27,15,27,24.40
2015,06,27,15,28,24.50
2015,06,27,15,29,24.70
2015,06,27,15,30,24.80
2015,06,27,15,31,24.90
2015,06,27,15,32,25.10
2015,06,27,15,33,25.10
2015,06,27,15,34,25.20
2015,06,27,15,35,25.10
2015,06,27,15,36,25.00
2015,06,27,15,37,25.00
2015,06,27,15,38,24.90
2015,06,27,15,39,24.80
2015,06,27,15,40,24.70
2015,06,27,15,41,24.70
2015,06,27,15,42,24.70
2015,06,27,15,43,24.70
2015,06,27,15,44,24.80
2015,06,27,15,45,24.90
2015,06,27,15,46,24.90
2015,06,27,15,47,25.00
2015,06,27,15,48,25.10
2015,06,27,15,49,25.20
2015,06,27,15,50,25.20
2015,06,27,15,51,25.20
2015,06,27,15,52,25.20
2015,06,27,15,53,25.20
2015,06,27,15,54,25.20
2015,06,27,15,55,25.20
2015,06,27,15,56,25.20
2015,06,27,15,57,25.20
2015,06,27,15,58,25.20
2015,06,27,15,59,25.20
2015,06,27,16,00,25.30
2015,06,27,16,01,25.40
2015,06,27,16,02,25.50
2015,06,27,16,03,25.50
2015,06,27,16,04,25.50
2015,06,27,16,05,25.50
2015,06,27,16,06,25.40
2015,06,27,16,07,25.40
2015,06,27,16,08,25.40
2015,06,27,16,09,25.40
2015,06,27,16,10,25.40
2015,06,27,16,11,25.40
2015,06,27,16,12,25.40
2015,06,27,16,13,25.30
2015,06,27,16,14,25.30
2015,06,27,16,15,25.30
2015,06,27,16,16,25.30
2015,06,27,16,17,25.30
2015,06,27,16,18,25.20
2015,06,27,16,19,25.10
2015,06,27,16,20,24.90
2015,06,27,16,21,24.80
2015,06,27,16,22,24.70
2015,06,27,16,23,24.60
2015,06,27,16,24,24.50
2015,06,27,16,25,24.40
2015,06,27,16,26,24.30
2015,06,27,16,27,24.20
2015,06,27,16,28,24.20
2015,06,27,16,29,24.10
2015,06,27,16,30,24.10
2015,06,27,16,31,24.10
2015,06,27,16,32,24.10
2015,06,27,16,33,24.10
2015,06,27,16,34,24.10
2015,06,27,16,35,24.10
2015,06,27,16,36,24.10
2015,06,27,16,37,24.10
2015,06,27,16,38,24.10
2015,06,27,16,39,24.10
2015,06,27,16,40,24.10
2015,06,27,16,41,24.10
2015,06,27,16,42,24.10
2015,06,27,16,43,24.00
2015,06,27,16,44,23.90
2015,06,27,16,45,23.80
2015,06,27,16,46,23.80
2015,06,27,16,47,23.70
2015,06,27,16,48,23.70
2015,06,27,16,49,23.50
2015,06,27,16,50,23.30
2015,06,27,16,51,23.10
2015,06,27,16,52,22.90
2015,06,27,16,53,22.80
2015,06,27,16,54,22.70
2015,06,27,16,55,22.60
2015,06,27,16,56,22.60
2015,06,27,16,57,22.60
2015,06,27,16,58,22.60
2015,06,27,16,59,22.60
2015,06,27,17,00,22.50
2015,06,27,17,01,22.40
2015,06,27,17,02,22.40
2015,06,27,17,03,22.40
2015,06,27,17,04,22.30
2015,06,27,17,05,22.30
2015,06,27,17,06,22.30
2015,06,27,17,07,22.30
2015,06,27,17,08,22.30
2015,06,27,17,09,22.30
2015,06,27,17,10,22.20
2015,06,27,17,11,22.20
2015,06,27,17,12,22.20
2015,06,27,17,13,22.10
2015,06,27,17,14,22.10
2015,06,27,17,15,22.00
2015,06,27,17,16,21.90
2015,06,27,17,17,21.90
2015,06,27,17,18,21.90
2015,06,27,17,19,21.90